| time (UTC) | temp F | wind direction | speed MPH | gust MPH | rain 1hr in | rain 24hr in | rain mn in | humidity % | barometer mb |
| 20260905183001 | 57 | 183 | 0.0 | 0.0 | 0.00 | 0.01 | 0.00 | 79 | 1017.8 |
| 20260905181502 | 57 | 183 | 0.0 | 0.0 | 0.00 | 0.01 | 0.00 | 80 | 1017.9 |
| 20260905174502 | 56 | 183 | 0.0 | 0.0 | 0.00 | 0.01 | 0.00 | 83 | 1017.9 |
| 20260905173001 | 55 | 183 | 0.0 | 2.0 | 0.00 | 0.01 | 0.00 | 83 | 1017.9 |
| 20260905171502 | 55 | 155 | 0.0 | 0.0 | 0.00 | 0.01 | 0.00 | 85 | 1017.8 |
| 20260905164502 | 53 | 155 | 0.0 | 0.0 | 0.00 | 0.01 | 0.00 | 86 | 1017.6 |
| 20260905163002 | 53 | 155 | 0.0 | 0.0 | 0.00 | 0.01 | 0.00 | 86 | 1017.7 |
| 20260905160000 | 53 | 155 | 0.0 | 2.0 | 0.00 | 0.01 | 0.00 | 84 | 1017.6 |
| 20260905151500 | 52 | 109 | 0.0 | 0.0 | 0.00 | 0.01 | 0.00 | 91 | 1017.3 |
| 20260905150005 | 51 | 109 | 0.0 | 0.0 | 0.00 | 0.01 | 0.00 | 91 | 1017.3 |
| 20260905141502 | 50 | 109 | 0.0 | 0.0 | 0.00 | 0.01 | 0.00 | 91 | 1017.2 |
| 20260905140005 | 50 | 109 | 0.0 | 0.0 | 0.00 | 0.01 | 0.00 | 90 | 1017.1 |
| 20260905134501 | 50 | 109 | 0.0 | 0.0 | 0.00 | 0.01 | 0.00 | 91 | 1016.8 |
| 20260905133001 | 50 | 109 | 0.0 | 0.0 | 0.00 | 0.01 | 0.00 | 91 | 1016.7 |
| 20260905131501 | 50 | 109 | 0.0 | 0.0 | 0.00 | 0.01 | 0.00 | 91 | 1016.6 |
| 20260905124500 | 50 | 109 | 0.0 | 0.0 | 0.00 | 0.01 | 0.00 | 91 | 1016.6 |
| 20260905123001 | 50 | 109 | 0.0 | 0.0 | 0.00 | 0.01 | 0.00 | 91 | 1016.6 |
| 20260905121501 | 50 | 109 | 0.0 | 0.0 | 0.00 | 0.01 | 0.00 | 91 | 1016.6 |
| 20260905120001 | 49 | 109 | 0.0 | 0.0 | 0.00 | 0.02 | 0.00 | 91 | 1016.7 |
| 20260905114501 | 49 | 109 | 0.0 | 0.0 | 0.00 | 0.02 | 0.00 | 91 | 1016.8 |
| 20260905113000 | 49 | 109 | 0.0 | 0.0 | 0.00 | 0.02 | 0.00 | 91 | 1016.5 |
| 20260905111501 | 49 | 109 | 0.0 | 0.0 | 0.00 | 0.02 | 0.00 | 91 | 1016.4 |
| 20260905110003 | 49 | 109 | 0.0 | 0.0 | 0.00 | 0.02 | 0.00 | 91 | 1016.3 |
| 20260905103001 | 50 | 109 | 0.0 | 0.0 | 0.00 | 0.05 | 0.00 | 91 | 1016.2 |
| 20260905101501 | 50 | 109 | 0.0 | 0.0 | 0.00 | 0.05 | 0.00 | 91 | 1016.1 |
| 20260905100006 | 50 | 109 | 0.0 | 0.0 | 0.00 | 0.11 | 0.00 | 91 | 1016.1 |
| 20260905094500 | 50 | 109 | 0.0 | 0.0 | 0.00 | 0.11 | 0.00 | 91 | 1016.1 |
| 20260905093003 | 50 | 109 | 0.0 | 0.0 | 0.00 | 0.11 | 0.00 | 91 | 1016.2 |
| 20260905091503 | 50 | 109 | 0.0 | 0.0 | 0.00 | 0.11 | 0.00 | 90 | 1016.1 |
| 20260905090001 | 51 | 109 | 0.0 | 0.0 | 0.00 | 0.13 | 0.00 | 90 | 1016.1 |
| 20260905084501 | 51 | 109 | 0.0 | 0.0 | 0.00 | 0.13 | 0.00 | 90 | 1016.0 |
| 20260905083000 | 51 | 109 | 0.0 | 0.0 | 0.00 | 0.13 | 0.00 | 90 | 1016.0 |
| 20260905081500 | 51 | 109 | 0.0 | 0.0 | 0.00 | 0.13 | 0.00 | 90 | 1016.1 |
| 20260905080006 | 52 | 109 | 0.0 | 0.0 | 0.00 | 0.13 | 0.00 | 90 | 1016.0 |
| 20260905074503 | 52 | 109 | 0.0 | 0.0 | 0.00 | 0.15 | 0.00 | 89 | 1015.9 |
| 20260905073005 | 53 | 109 | 0.0 | 0.0 | 0.00 | 0.15 | 0.00 | 89 | 1015.9 |
| 20260905071504 | 53 | 109 | 0.0 | 0.0 | 0.00 | 0.15 | 0.00 | 88 | 1015.7 |
| 20260905064505 | 53 | 109 | 0.0 | 0.0 | 0.00 | 0.17 | 0.15 | 89 | 1015.4 |
| 20260905063006 | 53 | 109 | 0.0 | 0.0 | 0.00 | 0.17 | 0.15 | 89 | 1015.2 |
| 20260905060005 | 54 | 109 | 0.0 | 0.0 | 0.00 | 0.17 | 0.15 | 89 | 1015.1 |
| 20260905054502 | 54 | 109 | 0.0 | 0.0 | 0.00 | 0.18 | 0.15 | 88 | 1015.1 |
| 20260905053002 | 55 | 109 | 0.0 | 0.0 | 0.00 | 0.18 | 0.15 | 87 | 1015.2 |
| 20260905051502 | 55 | 109 | 0.0 | 0.0 | 0.00 | 0.18 | 0.15 | 86 | 1015.1 |
| 20260905050005 | 56 | 109 | 0.0 | 0.0 | 0.00 | 0.18 | 0.15 | 85 | 1015.2 |
| 20260905044503 | 56 | 109 | 0.0 | 0.0 | 0.00 | 0.18 | 0.15 | 84 | 1015.2 |
| 20260905043003 | 56 | 109 | 0.0 | 0.0 | 0.00 | 0.18 | 0.15 | 83 | 1015.2 |
| 20260905040005 | 57 | 109 | 0.0 | 0.0 | 0.00 | 0.18 | 0.15 | 82 | 1015.1 |
| 20260905034502 | 57 | 109 | 0.0 | 0.0 | 0.00 | 0.18 | 0.15 | 81 | 1015.1 |
| 20260905033001 | 58 | 109 | 0.0 | 0.0 | 0.00 | 0.18 | 0.15 | 79 | 1014.9 |
| 20260905031502 | 58 | 109 | 0.0 | 0.0 | 0.00 | 0.18 | 0.15 | 77 | 1014.8 |
| 20260905030006 | 59 | 109 | 0.0 | 0.0 | 0.00 | 0.18 | 0.15 | 76 | 1014.6 |
| 20260905023003 | 60 | 109 | 0.0 | 0.0 | 0.00 | 0.21 | 0.15 | 75 | 1014.6 |
| 20260905021503 | 60 | 109 | 0.0 | 0.0 | 0.00 | 0.21 | 0.15 | 73 | 1014.7 |
| 20260905020003 | 61 | 109 | 0.0 | 0.0 | 0.00 | 0.76 | 0.15 | 72 | 1014.5 |
| 20260905014501 | 61 | 109 | 0.0 | 0.0 | 0.00 | 0.76 | 0.15 | 72 | 1014.3 |
| 20260905013002 | 61 | 124 | 0.0 | 0.0 | 0.00 | 0.76 | 0.15 | 72 | 1014.3 |
| 20260905010002 | 61 | 189 | 0.0 | 2.0 | 0.00 | 0.76 | 0.15 | 68 | 1013.8 |
| 20260905004503 | 61 | 189 | 1.0 | 2.0 | 0.00 | 0.76 | 0.15 | 67 | 1013.6 |
| 20260905001502 | 61 | 208 | 1.0 | 5.0 | 0.00 | 0.76 | 0.15 | 68 | 1014.0 |
| 20260905000003 | 62 | 178 | 1.0 | 8.0 | 0.00 | 0.76 | 0.15 | 67 | 1014.0 |
| 20260904234501 | 63 | 177 | 2.0 | 8.0 | 0.00 | 0.76 | 0.15 | 65 | 1013.8 |
| 20260904233001 | 64 | 76 | 3.0 | 12.0 | 0.00 | 0.76 | 0.15 | 64 | 1013.8 |
| 20260904231502 | 65 | 216 | 1.0 | 5.0 | 0.00 | 0.76 | 0.15 | 63 | 1013.6 |
| 20260904224502 | 64 | 152 | 0.0 | 2.0 | 0.00 | 0.76 | 0.15 | 64 | 1013.2 |
| 20260904223002 | 64 | 139 | 1.0 | 2.0 | 0.00 | 0.76 | 0.15 | 68 | 1013.1 |
| 20260904221502 | 66 | 180 | 1.0 | 2.0 | 0.00 | 0.76 | 0.15 | 65 | 1013.0 |
| 20260904220007 | 66 | 177 | 0.0 | 2.0 | 0.00 | 0.76 | 0.15 | 65 | 1012.9 |
| 20260904213004 | 65 | 50 | 0.0 | 3.0 | 0.00 | 0.76 | 0.15 | 68 | 1012.8 |
| 20260904211503 | 64 | 86 | 1.0 | 4.0 | 0.00 | 0.76 | 0.15 | 72 | 1012.7 |
| 20260904204502 | 62 | 73 | 0.0 | 1.0 | 0.00 | 0.76 | 0.15 | 76 | 1012.9 |
| 20260904201502 | 61 | 74 | 0.0 | 2.0 | 0.01 | 0.76 | 0.15 | 76 | 1012.9 |
| 20260904200006 | 61 | 74 | 0.0 | 3.0 | 0.01 | 0.76 | 0.15 | 77 | 1012.8 |
| 20260904194501 | 60 | 110 | 0.0 | 1.0 | 0.01 | 0.76 | 0.15 | 79 | 1012.8 |
| 20260904193003 | 59 | 110 | 0.0 | 2.0 | 0.00 | 0.75 | 0.14 | 81 | 1012.8 |
| 20260904190006 | 58 | 81 | 0.0 | 2.0 | 0.00 | 0.75 | 0.14 | 85 | 1013.0 |